Ben Bolt, TX

4:52 PM CDT on August 24, 2016 (GMT -0500)
Alice International

Weather History for KALI - January, 2013

Change the Weather History Date:

Saturday, January 26, 2013

  Actual Average Record
Temperature  
Mean Temperature 72 °F -  
Max Temperature 84 °F 68 °F 84 °F (2013)
Min Temperature 60 °F 46 °F 36 °F (2014)
Cooling Degree Days 7    
Growing Degree Days 22 (Base 50)    
Moisture  
Dew Point 60 °F    
Average Humidity 78    
Maximum Humidity 100    
Minimum Humidity 32    
Precipitation  
Precipitation 0.00 in - - ()
Sea Level Pressure  
Sea Level Pressure 30.08 in    
Wind  
Wind Speed 8 mph (SE)    
Max Wind Speed 22 mph    
Max Gust Speed 28 mph    
Visibility 8 miles    
Events Fog    
Averages and records for this station are not official NWS values.
T = Trace of Precipitation, MM = Missing Value Source: NWS Daily Summary

Daily Weather History Graph

Daily Weather History Graph

Search for Another Location

Airport or City:

Trip Planner

Search our weather history database for the weather conditions in past years. The results will help you decide how hot, cold, wet, or windy it might be!

Date:

Astronomy

Jan. 26, 2013 Rise Set
Actual Time 7:21 AM CST 6:08 PM CST
Civil Twilight 6:56 AM CST 6:33 PM CST
Nautical Twilight 6:28 AM CST 7:01 PM CST
Astronomical Twilight 6:00 AM CST 7:29 PM CST
Moon 6:00 PM CST (1/26) 6:43 AM CST (1/26)
Length of Visible Light 11h 36m
Length of Day
10h 46m
Full, 100% of the Moon is Illuminated
Jan 26
Full
Jan 26
Full
Feb 3
Last Quarter
Feb 10
New
Feb 17
First Quarter

Hourly Weather History & Observations

Time (CST) Temp. Heat Index Dew Point Humidity Pressure Visibility Wind Dir Wind Speed Gust Speed Precip Events Conditions
12:53 AM 64.0 °F - 61.0 °F 90% 30.08 in 10.0 mi SSE 8.1 mph - N/A   Clear
1:53 AM 63.0 °F - 61.0 °F 93% 30.08 in 10.0 mi SSE 5.8 mph - N/A   Clear
2:53 AM 64.0 °F - 61.0 °F 90% 30.07 in 10.0 mi SSE 9.2 mph - N/A   Clear
3:53 AM 63.0 °F - 62.1 °F 97% 30.07 in 10.0 mi SSE 6.9 mph - N/A   Partly Cloudy
4:08 AM 62.6 °F - 60.8 °F 94% 30.07 in 10.0 mi SSE 8.1 mph - N/A   Mostly Cloudy
4:53 AM 64.0 °F - 62.1 °F 93% 30.06 in 9.0 mi SSE 4.6 mph - N/A   Overcast
5:53 AM 64.0 °F - 63.0 °F 96% 30.08 in 9.0 mi Calm Calm - N/A   Overcast
6:53 AM 64.0 °F - 62.1 °F 93% 30.09 in 9.0 mi SE 4.6 mph - N/A   Overcast
7:48 AM 60.8 °F - 59.0 °F 94% 30.10 in 1.8 mi East 3.5 mph - N/A   Overcast
7:53 AM 61.0 °F - 60.1 °F 97% 30.10 in 1.0 mi Calm Calm - N/A   Overcast
7:58 AM 60.8 °F - 60.8 °F 100% 30.11 in 0.5 mi ENE 3.5 mph - N/A Fog Fog
8:10 AM 62.6 °F - 60.8 °F 94% 30.11 in 0.8 mi NE 3.5 mph - N/A   Overcast
8:18 AM 62.6 °F - 60.8 °F 94% 30.12 in 1.2 mi Calm Calm - N/A   Overcast
8:29 AM 62.6 °F - 60.8 °F 94% 30.12 in 3.0 mi Calm Calm - N/A   Overcast
8:53 AM 63.0 °F - 61.0 °F 93% 30.12 in 8.0 mi Calm Calm - N/A   Overcast
9:34 AM 68.0 °F - 64.4 °F 88% 30.13 in 10.0 mi South 6.9 mph - N/A   Overcast
9:53 AM 72.0 °F - 64.0 °F 76% 30.13 in 10.0 mi South 11.5 mph - N/A   Overcast
10:00 AM 71.6 °F - 62.6 °F 73% 30.13 in 10.0 mi South 11.5 mph - N/A   Mostly Cloudy
10:23 AM 73.4 °F - 60.8 °F 65% 30.13 in 10.0 mi South 17.3 mph 24.2 mph N/A   Scattered Clouds
10:53 AM 75.9 °F - 59.0 °F 56% 30.12 in 10.0 mi South 19.6 mph 25.3 mph N/A   Clear
11:53 AM 80.1 °F 80.4 °F 57.0 °F 45% 30.09 in 10.0 mi South 18.4 mph 23.0 mph N/A   Clear
12:53 PM 82.9 °F 82.0 °F 55.0 °F 38% 30.06 in 10.0 mi SSE 17.3 mph - N/A   Clear
1:53 PM 84.0 °F 82.6 °F 54.0 °F 35% 30.04 in 10.0 mi South 12.7 mph 20.7 mph N/A   Clear
2:53 PM 84.9 °F - 52.0 °F 32% 30.02 in 10.0 mi SSE 16.1 mph - N/A   Clear
3:53 PM 82.0 °F 82.1 °F 59.0 °F 45% 30.01 in 10.0 mi SE 17.3 mph 25.3 mph N/A   Clear
4:53 PM 78.1 °F - 59.0 °F 52% 30.02 in 10.0 mi ESE 21.9 mph 27.6 mph N/A   Clear
5:53 PM 73.0 °F - 57.9 °F 59% 30.03 in 10.0 mi SE 19.6 mph - N/A   Clear
6:53 PM 69.1 °F - 57.9 °F 68% 30.04 in 10.0 mi SE 16.1 mph 23.0 mph N/A   Clear
7:53 PM 66.9 °F - 59.0 °F 76% 30.05 in 10.0 mi SE 12.7 mph - N/A   Clear
8:53 PM 66.0 °F - 60.1 °F 81% 30.07 in 10.0 mi SSE 11.5 mph - N/A   Clear
9:53 PM 64.9 °F - 60.1 °F 84% 30.09 in 10.0 mi SE 9.2 mph - N/A   Clear
10:53 PM 63.0 °F - 59.0 °F 87% 30.09 in 10.0 mi SE 6.9 mph - N/A   Clear
11:53 PM 61.0 °F - 57.9 °F 90% 30.07 in 10.0 mi ESE 6.9 mph - N/A   Clear